[[{"header":{"parameterUnit":"m.s-1","parameterCategory":2,"la1":30.2991,"la2":30.254,"lo1":-89.0895,"lo2":-89.0444,"dy":0.0017,"dx":0.0017,"nx":28,"ny":28,"refTime":"2024-08-18T21:00:00:Z","depth":"0","parameterNumber":2,"parameterNumberName":"U-component_of_CURRENTS"},"data":[0,0,0,0,0,0,0,0,0,0,0,0,0,0,0,0,0,0,0,0,0,0,0,0,0,0,0,0,0,0,0,0,0,0,0,0,0,0,0,0,0,0,0,0,0,0,0,0,0,0,0,0,0,0,0,0,0,0,0.1788,0.1788,0,0.1788,0.1788,0.1788,0.1778,0.1778,0.1777,0.1777,0.1762,0.1762,0.1762,0,0,0,0,0,0,0,0,0,0,0,0,0,0.1823,0.1822,0.1788,0.1788,0.1788,0.1788,0.1788,0.1788,0.1778,0.1778,0.1777,0.1777,0.1762,0.1762,0.1762,0,0,0,0,0,0,0,0,0,0,0,0,0,0.1813,0.1822,0.1788,0.1784,0.1783,0.1788,0.1788,0.1788,0.1778,0.1778,0.1777,0.1777,0.1762,0.1762,0.1762,0.1767,0,0,0.1761,0.1761,0,0,0,0,0,0,0,0,0.1814,0.1812,0.1784,0.1784,0.1784,0.1783,0.1795,0.1781,0.1778,0.178,0.1777,0.1777,0.1768,0.1768,0.1768,0.1766,0.1766,0.1761,0.1761,0.1761,0.1761,0,0,0,0,0,0,0,0.1814,0.1812,0.1788,0.1784,0.1784,0.1797,0.1794,0.1792,0.1775,0.1779,0.1779,0.178,0.1768,0.1768,0.1768,0.1765,0.1761,0.1761,0.1761,0.1761,0.18,0.1802,0,0,0,0,0,0,0.1813,0.1812,0.1788,0.1788,0.1799,0.1796,0.1794,0.1783,0.1776,0.1774,0.178,0.1779,0.1769,0.1768,0.1767,0.1796,0.1761,0.176,0.176,0.1799,0.1801,0.1802,0,0,0,0,0,0,0.1814,0.1811,0.1788,0.1801,0.1799,0.1795,0.1784,0.1783,0.1785,0.1776,0.1775,0.1782,0.1769,0.1767,0.1773,0.1795,0.176,0.176,0.1798,0.18,0.1801,0.184,0,0,0,0,0,0,0.1815,0.1811,0.1808,0.1801,0.1799,0.1793,0.1785,0.1784,0.1786,0.1785,0.1778,0.1776,0.1768,0.1773,0.1772,0.1794,0.176,0.1796,0.1799,0.1801,0.1837,0.1843,0.1848,0,0,0,0,0,0.1816,0.1815,0.1807,0.1805,0.1793,0.1793,0.1793,0.179,0.1786,0.1789,0.1788,0.1776,0.1788,0.1774,0.1772,0.1794,0.1795,0.1798,0.1801,0.1835,0.1842,0.1848,0,0,0,0,0,0,0.1827,0.1814,0.1805,0.1799,0.1796,0.1791,0.1797,0.1793,0.1794,0.1795,0.1785,0.1783,0.1798,0.1792,0.1777,0.1815,0.1792,0.1795,0.1819,0.1825,0.1831,0.1829,0.176,0,0,0,0,0,0.1828,0.1822,0.1813,0.1807,0.1809,0.1803,0.1804,0.18,0.1799,0.18,0.1794,0.1797,0.1809,0.1813,0.1815,0.1831,0.1843,0.1848,0.1853,0.1858,0.1857,0.1891,0.19,0.1811,0.1811,0.1811,0,0,0.1829,0.1823,0.1818,0.181,0.1808,0.1814,0.1803,0.1806,0.1815,0.1798,0.1809,0.181,0.1817,0.1837,0.1844,0.1835,0.1896,0.1861,0.1865,0.1862,0.1895,0.1904,0.1911,0.1813,0.1813,0.1812,0,0,0.1835,0.1825,0.1825,0.1826,0.1826,0.1826,0.1827,0.1824,0.1827,0.1838,0.1835,0.185,0.1857,0.187,0.1879,0.1916,0.192,0.1921,0.1948,0.1982,0.1989,0.1996,0.2047,0.2057,0.1927,0.1927,0.1927,0,0.1841,0.1831,0.1827,0.1833,0.1835,0.1832,0.1837,0.1847,0.1845,0.1852,0.1846,0.1874,0.1877,0.1912,0.1929,0.1928,0.1952,0.1921,0.1989,0.1995,0.2001,0.2051,0.2063,0.1929,0.1929,0.1929,0.1928,0,0.1843,0.1842,0.1846,0.1849,0.1855,0.1858,0.1868,0.1878,0.1882,0.1887,0.1914,0.1923,0.1937,0.1952,0.1953,0.2001,0.2007,0.1988,0.197,0.2012,0.2063,0.2074,0.1932,0.1932,0.1931,0.193,0,0,0.1835,0.1845,0.1846,0.1846,0.1861,0.186,0.189,0.1905,0.1919,0.1935,0.1959,0.199,0.1988,0.1999,0.2005,0.204,0.2115,0.2036,0.2037,0.2084,0.2209,0.2109,0.2111,0.2107,0.2108,0.211,0.2236,0,0.1836,0.1843,0.1852,0.186,0.1863,0.1879,0.19,0.1919,0.1938,0.1963,0.1993,0.2017,0.201,0.2023,0.2057,0.2098,0.2142,0.2083,0.2163,0.2166,0.2068,0.2119,0.197,0.2058,0.2246,0.2248,0.2249,0,0.1828,0.1835,0.1841,0.1854,0.1857,0.1868,0.1892,0.1911,0.1959,0.1976,0.2012,0.2033,0.2096,0.2078,0.2174,0.2138,0.2177,0.2208,0.2213,0.2108,0.2084,0.2042,0.2071,0.2036,0.2266,0.2265,0.2264,0,0.1802,0.1822,0.1822,0.1828,0.185,0.186,0.1875,0.1912,0.1931,0.199,0.202,0.2077,0.212,0.2175,0.2234,0.2216,0.2338,0.232,0.2272,0.2267,0.2146,0.2126,0.214,0.2387,0.2387,0.2386,0.2386,0,0.1787,0.1787,0.181,0.1808,0.1811,0.1838,0.1851,0.1876,0.1928,0.1955,0.202,0.2059,0.2145,0.2218,0.2263,0.2299,0.2363,0.2286,0.2288,0.2157,0.2137,0.2103,0.2095,0.2391,0.239,0.2389,0.2388,0,0.1751,0.1767,0.1764,0.1787,0.1794,0.1793,0.183,0.1844,0.1902,0.1948,0.1976,0.2074,0.2152,0.223,0.2333,0.2326,0.2305,0.2373,0.2218,0.2196,0.2071,0.2069,0.2016,0.1962,0.2341,0.2339,0.2338,0,0.1727,0.1725,0.1737,0.1731,0.174,0.1753,0.1763,0.1819,0.1845,0.1946,0.1971,0.2069,0.2104,0.2218,0.2227,0.2282,0.2249,0.2178,0.2094,0.2046,0.2049,0.1994,0.195,0.1982,0.1978,0.1974,0.1971,0,0.1683,0.1689,0.1687,0.1683,0.1686,0.1697,0.1725,0.1745,0.1818,0.1859,0.1917,0.1956,0.2033,0.2002,0.2058,0.2073,0.2041,0.2103,0.2098,0.1797,0.1696,0.1649,0.1944,0.194,0.1943,0.1945,0.1947,0.1948,0.1641,0.1627,0.1627,0.1611,0.1623,0.1636,0.1615,0.1664,0.1691,0.172,0.1811,0.1813,0.1817,0.1848,0.1854,0.1774,0.182,0.1716,0.1737,0.1701,0.1568,0.1788,0.1742,0.1744,0.1745,0.1747,0.1748,0,0.1566,0.1562,0.1555,0.1531,0.1513,0.1553,0.1573,0.1541,0.1529,0.1593,0.1602,0.1585,0.1533,0.1549,0.1494,0.1435,0.1385,0.1411,0.132,0.1311,0.1548,0.1448,0.1279,0.1279,0.1279,0.1279,0.1279,0.1279,0.1528,0.1486,0.1479,0.1419,0.1409,0.1363,0.1352,0.133,0.1349,0.1322,0.1307,0.1329,0.1387,0.1339,0.126,0.1226,0.1177,0.1076,0.1158,0.1344,0.1375,0.1405,0.1309,0.1114,0.1114,0.0823,0.0821,0.082]},{"header":{"parameterUnit":"m.s-1","parameterCategory":2,"la1":30.2991,"la2":30.254,"lo1":-89.0895,"lo2":-89.0444,"dy":0.0017,"dx":0.0017,"nx":28,"ny":28,"refTime":"2024-08-18T21:00:00:Z","depth":"0","parameterNumber":3,"parameterNumberName":"V-component_of_CURRENTS"},"data":[0,0,0,0,0,0,0,0,0,0,0,0,0,0,0,0,0,0,0,0,0,0,0,0,0,0,0,0,0,0,0,0,0,0,0,0,0,0,0,0,0,0,0,0,0,0,0,0,0,0,0,0,0,0,0,0,0,0,-0.0316,-0.0316,0,-0.0329,-0.0329,-0.0329,-0.035,-0.035,-0.035,-0.0351,-0.0395,-0.0396,-0.0397,0,0,0,0,0,0,0,0,0,0,0,0,0,-0.0342,-0.0342,-0.0316,-0.0316,-0.0316,-0.0328,-0.0329,-0.0329,-0.035,-0.035,-0.035,-0.0351,-0.0395,-0.0396,-0.0397,0,0,0,0,0,0,0,0,0,0,0,0,0,-0.0342,-0.0341,-0.0316,-0.0327,-0.0327,-0.0328,-0.0329,-0.0329,-0.035,-0.035,-0.035,-0.0351,-0.0395,-0.0396,-0.0398,-0.0401,0,0,-0.0402,-0.0403,0,0,0,0,0,0,0,0,-0.0342,-0.0342,-0.0325,-0.0326,-0.0327,-0.0336,-0.0354,-0.0354,-0.035,-0.0344,-0.0351,-0.0351,-0.0377,-0.038,-0.0384,-0.0403,-0.0405,-0.0402,-0.0403,-0.0404,-0.0404,0,0,0,0,0,0,0,-0.0342,-0.0341,-0.0323,-0.0325,-0.0326,-0.0341,-0.0341,-0.0355,-0.0361,-0.0344,-0.0345,-0.0343,-0.0378,-0.0383,-0.0385,-0.0406,-0.0402,-0.0404,-0.0405,-0.0405,-0.0439,-0.0439,0,0,0,0,0,0,-0.0334,-0.0341,-0.0323,-0.0324,-0.0333,-0.034,-0.034,-0.0335,-0.036,-0.0363,-0.0343,-0.0344,-0.038,-0.0384,-0.0387,-0.0385,-0.0404,-0.0405,-0.0406,-0.0439,-0.0439,-0.0439,0,0,0,0,0,0,-0.0335,-0.0332,-0.0322,-0.0331,-0.0331,-0.0339,-0.0332,-0.0335,-0.0336,-0.0358,-0.0363,-0.0341,-0.038,-0.0385,-0.0396,-0.0387,-0.0406,-0.0407,-0.0439,-0.0439,-0.0439,-0.0386,0,0,0,0,0,0,-0.0335,-0.0332,-0.0329,-0.033,-0.033,-0.0316,-0.0332,-0.0335,-0.0333,-0.0335,-0.0358,-0.0363,-0.0381,-0.0394,-0.0398,-0.039,-0.0409,-0.0439,-0.0439,-0.0439,-0.0388,-0.0385,-0.0381,0,0,0,0,0,-0.0336,-0.0325,-0.0328,-0.0326,-0.0323,-0.0315,-0.0316,-0.0325,-0.0333,-0.0328,-0.0347,-0.0362,-0.0396,-0.0395,-0.0399,-0.0392,-0.0439,-0.0439,-0.0439,-0.039,-0.0385,-0.0382,0,0,0,0,0,0,-0.0333,-0.0326,-0.033,-0.0317,-0.0313,-0.0317,-0.0314,-0.032,-0.0331,-0.0334,-0.0359,-0.0365,-0.0371,-0.0391,-0.0388,-0.0403,-0.0421,-0.0422,-0.0382,-0.0378,-0.0375,-0.0348,-0.041,0,0,0,0,0,-0.0329,-0.0319,-0.0317,-0.0305,-0.0303,-0.0308,-0.0307,-0.0311,-0.0318,-0.0323,-0.034,-0.0361,-0.0375,-0.0383,-0.04,-0.0406,-0.0405,-0.0406,-0.0403,-0.04,-0.0382,-0.038,-0.0374,-0.0438,-0.0438,-0.0438,0,0,-0.0325,-0.0318,-0.0313,-0.0303,-0.0304,-0.0292,-0.0309,-0.03,-0.0292,-0.0327,-0.0326,-0.0348,-0.0374,-0.0381,-0.0386,-0.0395,-0.0381,-0.04,-0.0397,-0.038,-0.0379,-0.0373,-0.0367,-0.0438,-0.0438,-0.0438,0,0,-0.0303,-0.0304,-0.0287,-0.0282,-0.0275,-0.0278,-0.0273,-0.0275,-0.0278,-0.0278,-0.0303,-0.0314,-0.034,-0.0352,-0.0363,-0.0351,-0.0363,-0.0365,-0.0325,-0.0324,-0.0318,-0.0313,-0.0296,-0.029,-0.0365,-0.0364,-0.0364,0,-0.03,-0.0275,-0.0281,-0.0263,-0.0254,-0.0268,-0.0247,-0.0252,-0.0257,-0.0253,-0.0272,-0.0296,-0.0322,-0.0319,-0.0319,-0.034,-0.0338,-0.0336,-0.0317,-0.0312,-0.0307,-0.0292,-0.0286,-0.0362,-0.0362,-0.0362,-0.0363,0,-0.0263,-0.0247,-0.0236,-0.0219,-0.0211,-0.0195,-0.0198,-0.0195,-0.0204,-0.0207,-0.0207,-0.0239,-0.0249,-0.0266,-0.029,-0.0274,-0.0281,-0.031,-0.0321,-0.0297,-0.0283,-0.0277,-0.0358,-0.0359,-0.036,-0.0361,0,0,-0.0245,-0.0216,-0.0212,-0.0194,-0.0185,-0.0171,-0.0159,-0.0145,-0.0127,-0.0145,-0.012,-0.0154,-0.0168,-0.0181,-0.0213,-0.0215,-0.0188,-0.0246,-0.0247,-0.0218,-0.017,-0.0187,-0.0183,-0.0215,-0.0214,-0.0213,-0.0169,0,-0.0214,-0.0169,-0.0165,-0.0125,-0.0103,-0.0109,-0.0091,-0.0083,-0.0085,-0.0069,-0.0094,-0.0089,-0.0137,-0.0139,-0.0148,-0.018,-0.0172,-0.0196,-0.0207,-0.0207,-0.0216,-0.0177,-0.0169,-0.0131,-0.0164,-0.0163,-0.0162,0,-0.0174,-0.015,-0.0103,-0.0068,-0.0059,-0.0039,-0.0008,0.0006,0.0017,0.0017,0.0017,-0.0004,-0.0007,-0.0054,-0.0073,-0.0087,-0.0115,-0.0141,-0.014,-0.0168,-0.0214,-0.0163,-0.012,-0.0187,-0.0154,-0.0155,-0.0155,0,-0.0144,-0.0104,-0.0062,-0.0051,-0.0018,0.0003,0.0019,0.0036,0.0062,0.0078,0.0102,0.0083,0.009,0.0047,-0.0011,-0.0038,-0.0028,-0.0077,-0.011,-0.0112,-0.0111,-0.0114,-0.0122,-0.0073,-0.0073,-0.0073,-0.0074,0,-0.0107,-0.0076,-0.0043,-0.002,0.0034,0.0041,0.0094,0.0107,0.0137,0.0188,0.0153,0.0191,0.0116,0.0103,0.0034,-0.001,0.0009,-0.008,-0.0097,-0.0094,-0.0096,-0.0162,-0.0203,-0.0072,-0.0072,-0.0072,-0.0073,0,-0.0078,-0.0058,-0.0006,0.0036,0.0053,0.0093,0.0146,0.0183,0.0206,0.0273,0.0286,0.0289,0.0274,0.0199,0.0142,0.0063,-0.0027,-0.0013,0.0004,-0.0012,-0.013,-0.0169,-0.0179,-0.0211,-0.0041,-0.0041,-0.0041,0,-0.0057,-0.0027,0.0037,0.0075,0.0098,0.015,0.019,0.0219,0.0266,0.0339,0.0384,0.0392,0.0405,0.0315,0.0187,0.0083,0.0003,0.0012,-0.0048,-0.0113,-0.0169,-0.02,-0.023,-0.0019,-0.0019,-0.0019,-0.0019,0,-0.0016,0.0008,0.0054,0.0127,0.018,0.0236,0.0297,0.0345,0.0396,0.0455,0.0536,0.0551,0.0475,0.037,0.0218,0.0136,-0.0038,0.0009,-0.0061,-0.0144,-0.0174,-0.0222,-0.0065,-0.0018,-0.0019,-0.0019,-0.0019,-0.0019,0.0022,0.0062,0.0125,0.0193,0.025,0.0322,0.0373,0.0441,0.0527,0.0612,0.063,0.0657,0.051,0.0302,0.0192,-0.0018,-0.003,-0.0102,-0.0137,-0.0158,-0.0209,-0.0046,-0.0029,-0.0029,-0.0029,-0.0029,-0.0029,0,0.0079,0.0121,0.0184,0.0268,0.0327,0.0348,0.0445,0.0494,0.0596,0.0661,0.0712,0.0649,0.0474,0.0285,0.0009,-0.0144,-0.02,-0.0225,-0.0264,-0.0285,-0.0133,-0.0155,-0.0162,-0.0162,-0.0162,-0.0162,-0.0162,-0.0162,0.0115,0.0186,0.0211,0.0317,0.0369,0.0451,0.0505,0.0578,0.0637,0.0697,0.0701,0.0682,0.0543,0.0109,-0.0202,-0.0275,-0.0384,-0.0398,-0.0459,-0.0362,-0.0353,-0.0345,-0.0376,-0.0429,-0.0429,-0.0592,-0.0594,-0.0595]}],[{"header":{"parameterUnit":"m.s-1","parameterCategory":2,"la1":30.2991,"la2":30.254,"lo1":-89.0895,"lo2":-89.0444,"dy":0.0017,"dx":0.0017,"nx":28,"ny":28,"refTime":"2024-08-18T21:00:00:Z","depth":"2","parameterNumber":2,"parameterNumberName":"U-component_of_CURRENTS"},"data":[0,0,0,0,0,0,0,0,0,0,0,0,0,0,0,0,0,0,0,0,0,0,0,0,0,0,0,0,0,0,0,0,0,0,0,0,0,0,0,0,0,0,0,0,0,0,0,0,0,0,0,0,0,0,0,0,0,0,0.1501,0.1501,0,0.1514,0.1514,0.1514,0.1507,0.1507,0.1507,0.1507,0.1518,0.1518,0.1519,0,0,0,0,0,0,0,0,0,0,0,0,0,0.1481,0.1482,0.1501,0.1501,0.1501,0.1514,0.1514,0.1514,0.1507,0.1507,0.1507,0.1507,0.1518,0.1518,0.1519,0,0,0,0,0,0,0,0,0,0,0,0,0,0.149,0.1482,0.1501,0.1501,0.1501,0.1514,0.1514,0.1514,0.1507,0.1507,0.1507,0.1507,0.1517,0.1518,0.1519,0.1529,0,0,0.1521,0.1521,0,0,0,0,0,0,0,0,0.149,0.1491,0.15,0.1501,0.1501,0.151,0.1511,0.1519,0.1507,0.1503,0.1507,0.1506,0.1516,0.1517,0.1518,0.1529,0.153,0.1521,0.1521,0.1522,0.1522,0,0,0,0,0,0,0,0.1489,0.149,0.1504,0.1501,0.1501,0.1504,0.1505,0.1513,0.151,0.1504,0.1504,0.1508,0.1516,0.1517,0.1518,0.153,0.1521,0.1521,0.1522,0.1522,0.1565,0.1566,0,0,0,0,0,0,0.149,0.1489,0.1504,0.1505,0.1496,0.1505,0.1506,0.1506,0.151,0.1511,0.1508,0.1507,0.1516,0.1517,0.1518,0.1556,0.1522,0.1522,0.1523,0.1565,0.1565,0.1566,0,0,0,0,0,0,0.149,0.1491,0.1503,0.1499,0.1501,0.1506,0.1506,0.1507,0.1518,0.1513,0.1514,0.1521,0.1516,0.1517,0.152,0.1555,0.1523,0.1523,0.1564,0.1565,0.1566,0.1614,0,0,0,0,0,0,0.1489,0.1491,0.1496,0.1499,0.1501,0.1517,0.1507,0.1507,0.1521,0.1521,0.1524,0.1524,0.1516,0.1519,0.1521,0.1555,0.1524,0.1563,0.1564,0.1565,0.1612,0.1617,0.1621,0,0,0,0,0,0.1488,0.1495,0.1496,0.1498,0.1506,0.1518,0.1519,0.1521,0.1522,0.153,0.1522,0.1525,0.153,0.1519,0.1522,0.1558,0.1562,0.1564,0.1565,0.161,0.1616,0.1621,0,0,0,0,0,0,0.1495,0.1495,0.1496,0.1504,0.1514,0.1518,0.1527,0.1531,0.1532,0.1532,0.1526,0.1525,0.1546,0.1539,0.1529,0.1573,0.155,0.1553,0.1584,0.1589,0.1594,0.1603,0.1524,0,0,0,0,0,0.1498,0.1499,0.1506,0.1515,0.1521,0.1528,0.1535,0.1537,0.1538,0.154,0.1542,0.1544,0.1554,0.1559,0.1563,0.1583,0.1591,0.1609,0.1614,0.1618,0.1626,0.166,0.1669,0.1572,0.1572,0.1572,0,0,0.15,0.1505,0.1503,0.1516,0.1524,0.1538,0.1532,0.1546,0.1561,0.1541,0.1561,0.1562,0.1562,0.1582,0.1592,0.1581,0.1651,0.162,0.1624,0.1629,0.1663,0.1673,0.1681,0.1573,0.1572,0.1572,0,0,0.151,0.1514,0.1519,0.1528,0.1544,0.1552,0.156,0.1571,0.158,0.1596,0.1589,0.1605,0.1617,0.1624,0.163,0.1664,0.1675,0.1673,0.1707,0.1741,0.1749,0.1757,0.1785,0.1794,0.1676,0.1676,0.1676,0,0.1514,0.1522,0.1525,0.1538,0.1549,0.1561,0.1576,0.1591,0.1601,0.161,0.1608,0.1638,0.1641,0.1671,0.1684,0.1679,0.1695,0.1686,0.1748,0.1756,0.1763,0.1789,0.18,0.1678,0.1678,0.1678,0.1678,0,0.1526,0.1536,0.1544,0.1562,0.1577,0.1591,0.1611,0.1625,0.1642,0.1655,0.1689,0.1694,0.1711,0.1725,0.1717,0.1772,0.1766,0.1751,0.1736,0.1776,0.1801,0.1811,0.1682,0.1681,0.168,0.168,0,0,0.1514,0.1545,0.1546,0.1556,0.1588,0.1597,0.1629,0.1656,0.1676,0.1703,0.1736,0.1766,0.1775,0.1782,0.1785,0.182,0.1888,0.1813,0.1813,0.1845,0.1965,0.1869,0.187,0.1887,0.1889,0.189,0.1964,0,0.1521,0.1546,0.1562,0.1586,0.16,0.162,0.1647,0.1673,0.1702,0.1737,0.1767,0.1803,0.1797,0.1816,0.185,0.1882,0.1915,0.1869,0.1918,0.1919,0.1832,0.1878,0.1707,0.175,0.1974,0.1975,0.1977,0,0.1523,0.1537,0.1564,0.1593,0.16,0.1621,0.1658,0.1684,0.1736,0.1761,0.1805,0.1832,0.1897,0.1882,0.1965,0.1938,0.1957,0.1977,0.198,0.1879,0.184,0.1745,0.1759,0.1993,0.1991,0.199,0.1989,0,0.1507,0.1537,0.1558,0.1567,0.1604,0.1619,0.1644,0.169,0.1716,0.1786,0.1822,0.1887,0.1932,0.1979,0.2018,0.2005,0.2099,0.2082,0.2011,0.2004,0.1861,0.1838,0.2135,0.2134,0.2134,0.2134,0.2134,0,0.1505,0.1513,0.1551,0.1556,0.1574,0.1609,0.1642,0.1671,0.1732,0.1769,0.1837,0.188,0.1961,0.2017,0.2044,0.2056,0.212,0.2028,0.202,0.1871,0.1849,0.2055,0.2045,0.2137,0.2136,0.2136,0.2135,0,0.1477,0.1508,0.1521,0.1557,0.1569,0.158,0.1634,0.1657,0.1722,0.1778,0.1809,0.1901,0.1961,0.2017,0.2095,0.2077,0.2106,0.2086,0.1901,0.1868,0.1987,0.1978,0.2033,0.203,0.2028,0.2026,0.2024,0,0.1463,0.1477,0.1508,0.1515,0.1531,0.1558,0.1578,0.1643,0.1675,0.1777,0.1803,0.1886,0.1908,0.198,0.1969,0.1988,0.2048,0.1838,0.1772,0.1991,0.1979,0.1974,0.1968,0.1615,0.161,0.1606,0.1603,0,0.1434,0.1453,0.146,0.1476,0.1497,0.1517,0.1557,0.1578,0.1656,0.1697,0.1748,0.1777,0.1821,0.1748,0.1762,0.1754,0.1822,0.1755,0.2052,0.165,0.1598,0.1585,0.1594,0.1568,0.1571,0.1574,0.1576,0.1577,0.1406,0.1399,0.1422,0.1422,0.1447,0.1464,0.1452,0.15,0.1527,0.1555,0.1634,0.1608,0.1619,0.1535,0.1495,0.1469,0.1598,0.1537,0.155,0.1566,0.1487,0.1432,0.1357,0.1359,0.1361,0.1363,0.1364,0,0.1358,0.1358,0.1366,0.1361,0.1352,0.1396,0.1419,0.1389,0.1373,0.142,0.1424,0.1296,0.123,0.1247,0.114,0.1141,0.1142,0.1101,0.1089,0.1124,0.1155,0.1056,0.0811,0.0809,0.0808,0.0806,0,0,0.1335,0.1309,0.1302,0.1262,0.126,0.1226,0.1217,0.1192,0.1197,0.1152,0.1116,0.1184,0.1208,0.1,0.0966,0.0868,0.0996,0.0834,0.1276,0.1297,0.1327,0.1401,0.1286,0,0,0,0,0]},{"header":{"parameterUnit":"m.s-1","parameterCategory":2,"la1":30.2991,"la2":30.254,"lo1":-89.0895,"lo2":-89.0444,"dy":0.0017,"dx":0.0017,"nx":28,"ny":28,"refTime":"2024-08-18T21:00:00:Z","depth":"2","parameterNumber":3,"parameterNumberName":"V-component_of_CURRENTS"},"data":[0,0,0,0,0,0,0,0,0,0,0,0,0,0,0,0,0,0,0,0,0,0,0,0,0,0,0,0,0,0,0,0,0,0,0,0,0,0,0,0,0,0,0,0,0,0,0,0,0,0,0,0,0,0,0,0,0,0,-0.0032,-0.0033,0,-0.0049,-0.005,-0.005,-0.0067,-0.0068,-0.0068,-0.0068,-0.0116,-0.0117,-0.0118,0,0,0,0,0,0,0,0,0,0,0,0,0,-0.003,-0.003,-0.0032,-0.0033,-0.0033,-0.0049,-0.005,-0.005,-0.0067,-0.0068,-0.0068,-0.0068,-0.0116,-0.0117,-0.0118,0,0,0,0,0,0,0,0,0,0,0,0,0,-0.0038,-0.003,-0.0032,-0.0043,-0.0044,-0.0049,-0.005,-0.005,-0.0067,-0.0068,-0.0068,-0.0068,-0.0115,-0.0117,-0.0119,-0.0125,0,0,-0.0124,-0.0125,0,0,0,0,0,0,0,0,-0.0038,-0.0039,-0.0041,-0.0042,-0.0043,-0.0056,-0.0066,-0.0076,-0.0067,-0.0059,-0.0068,-0.0068,-0.0098,-0.0101,-0.0105,-0.0127,-0.0129,-0.0124,-0.0125,-0.0126,-0.0126,0,0,0,0,0,0,0,-0.0037,-0.0038,-0.004,-0.0041,-0.0042,-0.0051,-0.0053,-0.0068,-0.0079,-0.006,-0.0061,-0.0061,-0.0099,-0.0103,-0.0106,-0.013,-0.0124,-0.0125,-0.0126,-0.0127,-0.0153,-0.0153,0,0,0,0,0,0,-0.0032,-0.0037,-0.004,-0.0041,-0.004,-0.0051,-0.0053,-0.0052,-0.0078,-0.0081,-0.0061,-0.0062,-0.01,-0.0104,-0.0108,-0.0112,-0.0126,-0.0127,-0.0128,-0.0154,-0.0153,-0.0153,0,0,0,0,0,0,-0.0032,-0.0032,-0.0039,-0.0039,-0.004,-0.0051,-0.005,-0.0052,-0.0061,-0.0078,-0.0082,-0.0068,-0.01,-0.0105,-0.0112,-0.0114,-0.0128,-0.013,-0.0154,-0.0154,-0.0153,-0.0123,0,0,0,0,0,0,-0.0032,-0.0032,-0.0032,-0.0038,-0.004,-0.0039,-0.005,-0.0053,-0.006,-0.0061,-0.0085,-0.0089,-0.0101,-0.0109,-0.0114,-0.0117,-0.0131,-0.0155,-0.0154,-0.0153,-0.0124,-0.0121,-0.0119,0,0,0,0,0,-0.0032,-0.0025,-0.0032,-0.0033,-0.0039,-0.0039,-0.0041,-0.005,-0.006,-0.006,-0.0069,-0.0089,-0.0109,-0.011,-0.0115,-0.0119,-0.0155,-0.0154,-0.0153,-0.0125,-0.0122,-0.0119,0,0,0,0,0,0,-0.0028,-0.0026,-0.0034,-0.003,-0.0035,-0.0042,-0.0042,-0.0051,-0.006,-0.0062,-0.0082,-0.0087,-0.0095,-0.0109,-0.011,-0.0124,-0.0136,-0.0137,-0.0113,-0.011,-0.0108,-0.0092,-0.0132,0,0,0,0,0,-0.0027,-0.0019,-0.0025,-0.0023,-0.0024,-0.0036,-0.0039,-0.0044,-0.0051,-0.0056,-0.0072,-0.0086,-0.0095,-0.0103,-0.0114,-0.0122,-0.0125,-0.0128,-0.0126,-0.0123,-0.0113,-0.0117,-0.0113,-0.015,-0.015,-0.015,0,0,-0.0024,-0.0023,-0.002,-0.0021,-0.0027,-0.0022,-0.0039,-0.0039,-0.0035,-0.006,-0.0062,-0.0078,-0.0094,-0.0099,-0.0105,-0.0111,-0.0114,-0.0122,-0.012,-0.0111,-0.0115,-0.0112,-0.0109,-0.015,-0.015,-0.015,0,0,-0.001,-0.0016,-0.0004,-0.0004,-0.0007,-0.0013,-0.0014,-0.0022,-0.0028,-0.0031,-0.0046,-0.0056,-0.0077,-0.0083,-0.009,-0.008,-0.0099,-0.0092,-0.0067,-0.0071,-0.0068,-0.0065,-0.006,-0.0057,-0.0091,-0.0091,-0.0091,0,-0.0008,0.0005,-0.0002,0.0009,0.0013,-0.0008,0.0004,-0.0003,-0.0012,-0.0011,-0.0027,-0.0046,-0.0067,-0.0063,-0.0061,-0.0074,-0.0076,-0.0079,-0.0067,-0.0064,-0.0062,-0.0058,-0.0055,-0.009,-0.009,-0.009,-0.009,0,0.0017,0.0025,0.0033,0.0041,0.0042,0.005,0.0043,0.0042,0.0028,0.002,0.0016,-0.0008,-0.0016,-0.0031,-0.0045,-0.0039,-0.0045,-0.0062,-0.0074,-0.0056,-0.0053,-0.0051,-0.0088,-0.0088,-0.0089,-0.0089,0,0,0.0035,0.0048,0.0052,0.0063,0.0062,0.0069,0.0077,0.0081,0.0092,0.0069,0.0083,0.0054,0.0037,0.0029,0.0006,-0.0002,0.0006,-0.0024,-0.0025,-0.0016,0.0006,-0.0011,-0.0011,-0.0011,-0.001,-0.001,0.0004,0,0.0056,0.0086,0.0086,0.0112,0.0126,0.0118,0.013,0.0131,0.0122,0.0129,0.0103,0.0102,0.0061,0.0058,0.0043,0.0018,0.0013,0.0004,-0.0014,-0.0014,-0.003,-0.0008,0.0003,0.0015,0.0006,0.0006,0.0007,0,0.0083,0.0102,0.0132,0.0155,0.016,0.0172,0.0193,0.0201,0.0203,0.0198,0.019,0.0168,0.0158,0.0117,0.0087,0.0083,0.0051,0.0026,0.0025,0.0002,-0.0028,-0.0005,0.0019,0.001,0.001,0.001,0.001,0,0.0105,0.0134,0.016,0.0168,0.019,0.0206,0.0215,0.0223,0.0242,0.0245,0.0263,0.0233,0.0236,0.0187,0.0127,0.0111,0.0095,0.0065,0.0022,0.002,0.0023,0.0021,0.0048,0.0048,0.0048,0.0048,0.0048,0,0.0131,0.0155,0.0174,0.0193,0.0231,0.0234,0.027,0.0278,0.03,0.0337,0.0301,0.0328,0.0253,0.023,0.016,0.0104,0.012,0.0038,0.0024,0.0034,0.0033,0.002,0.0017,0.0048,0.0048,0.0048,0.0048,0,0.0154,0.0164,0.0199,0.023,0.0242,0.0271,0.0312,0.0342,0.0356,0.0409,0.0418,0.0411,0.0382,0.0302,0.0234,0.0161,0.0097,0.007,0.0089,0.0078,0.0018,0.0016,0.0031,0.0031,0.003,0.003,0.003,0,0.0168,0.0186,0.0228,0.0255,0.0272,0.0312,0.0345,0.0368,0.0409,0.0465,0.0503,0.0493,0.049,0.038,0.0256,0.0143,0.0115,0.0071,0.0034,0.0031,0.0017,0.0016,0.0014,0.0055,0.0055,0.0055,0.0055,0,0.0198,0.0209,0.0242,0.0294,0.0333,0.0381,0.0433,0.0476,0.0521,0.0567,0.0627,0.0627,0.0534,0.0421,0.026,0.0179,0.0085,0.0066,0.0072,0.005,0.0053,0.0039,0.0037,0.0055,0.0055,0.0055,0.0055,0.0055,0.0221,0.0249,0.0288,0.0339,0.0385,0.045,0.0493,0.0556,0.0627,0.0694,0.0701,0.0694,0.0581,0.037,0.0236,0.009,0.0095,0.0031,0.0032,0.0032,0.0025,0.0026,0.0022,0.0022,0.0022,0.0022,0.0022,0,0.0251,0.0284,0.033,0.0392,0.0444,0.0464,0.0553,0.0596,0.068,0.0725,0.0754,0.0648,0.0524,0.0385,0.0172,0.0044,0.0034,-0.0002,0.0014,0.0016,0.0017,0.0009,0.0002,0.0001,0.0001,0.0001,0,0,0.0272,0.032,0.0342,0.0428,0.0472,0.0545,0.0595,0.0658,0.0701,0.0741,0.0734,0.0709,0.0558,0.0398,0.0238,0.0115,0.0087,0.0087,0.0118,0.0158,0.016,0.0053,0.0044,0,0,0,0,0]}],[{"header":{"parameterUnit":"m.s-1","parameterCategory":2,"la1":30.2991,"la2":30.254,"lo1":-89.0895,"lo2":-89.0444,"dy":0.0017,"dx":0.0017,"nx":28,"ny":28,"refTime":"2024-08-18T21:00:00:Z","depth":"4","parameterNumber":2,"parameterNumberName":"U-component_of_CURRENTS"},"data":[0,0,0,0,0,0,0,0,0,0,0,0,0,0,0,0,0,0,0,0,0,0,0,0,0,0,0,0,0,0,0,0,0,0,0,0,0,0,0,0,0,0,0,0,0,0,0,0,0,0,0,0,0,0,0,0,0,0,0.0706,0.0706,0,0.073,0.073,0.073,0.0756,0.0756,0.0757,0.0757,0.0783,0.0783,0.0783,0,0,0,0,0,0,0,0,0,0,0,0,0,0.0667,0.0668,0.0706,0.0706,0.0707,0.073,0.073,0.073,0.0756,0.0756,0.0757,0.0758,0.0783,0.0783,0.0783,0,0,0,0,0,0,0,0,0,0,0,0,0,0.0685,0.0668,0.0706,0.0724,0.0726,0.073,0.073,0.073,0.0755,0.0756,0.0757,0.0758,0.0783,0.0783,0.0783,0.0767,0,0,0.0784,0.0784,0,0,0,0,0,0,0,0,0.0684,0.0686,0.0721,0.0723,0.0725,0.0743,0.0726,0.0743,0.0755,0.0742,0.0757,0.0758,0.077,0.0772,0.0771,0.0768,0.0769,0.0784,0.0784,0.0784,0.0784,0,0,0,0,0,0,0,0.0682,0.0685,0.0713,0.0721,0.0724,0.0726,0.073,0.0729,0.0749,0.0743,0.0745,0.0752,0.0771,0.0771,0.0772,0.0769,0.0784,0.0784,0.0784,0.0784,0.0823,0.0824,0,0,0,0,0,0,0.0684,0.0684,0.0712,0.0714,0.0709,0.0727,0.073,0.0734,0.0749,0.0753,0.0751,0.0753,0.077,0.0771,0.0773,0.0823,0.0784,0.0784,0.0784,0.0822,0.0823,0.0824,0,0,0,0,0,0,0.0683,0.0686,0.0711,0.0701,0.0705,0.0727,0.0731,0.0734,0.0758,0.0756,0.0759,0.0774,0.0771,0.0772,0.0804,0.0821,0.0784,0.0784,0.0821,0.0822,0.0824,0.0879,0,0,0,0,0,0,0.0682,0.0686,0.0696,0.0701,0.0706,0.0727,0.073,0.0734,0.076,0.0763,0.0776,0.0778,0.0771,0.0804,0.0804,0.0821,0.0784,0.082,0.0822,0.0823,0.0876,0.0882,0.0887,0,0,0,0,0,0.068,0.0687,0.0696,0.07,0.0717,0.0728,0.073,0.0746,0.0761,0.0771,0.0792,0.0779,0.0815,0.0805,0.0805,0.0822,0.0819,0.0821,0.0823,0.0873,0.0881,0.0887,0,0,0,0,0,0,0.0677,0.069,0.07,0.0712,0.0727,0.0734,0.0749,0.0759,0.0783,0.0796,0.0795,0.0798,0.0832,0.082,0.0809,0.0838,0.0812,0.0814,0.085,0.0857,0.0863,0.087,0.0785,0,0,0,0,0,0.068,0.0691,0.0704,0.0717,0.0728,0.0743,0.0754,0.0766,0.0784,0.0796,0.0808,0.082,0.0835,0.0843,0.085,0.0865,0.0865,0.0875,0.088,0.0885,0.0891,0.0918,0.0927,0.0831,0.0831,0.0831,0,0,0.0683,0.0694,0.0701,0.0718,0.0733,0.0749,0.0752,0.0777,0.0795,0.0795,0.0831,0.0845,0.0846,0.087,0.0882,0.0865,0.0911,0.0888,0.0892,0.0895,0.0922,0.0931,0.094,0.0832,0.0832,0.0832,0,0,0.0691,0.0707,0.0718,0.0732,0.076,0.0768,0.0782,0.0803,0.0821,0.0855,0.0863,0.0894,0.0908,0.0915,0.0919,0.0958,0.0945,0.0957,0.0987,0.1014,0.1022,0.1029,0.1037,0.1045,0.0954,0.0954,0.0954,0,0.0694,0.0712,0.0724,0.074,0.0757,0.0781,0.08,0.0817,0.0848,0.0869,0.0876,0.0924,0.0929,0.0958,0.0977,0.0971,0.098,0.0962,0.1022,0.1029,0.1036,0.1042,0.105,0.0957,0.0956,0.0956,0.0956,0,0.071,0.0729,0.074,0.0768,0.0785,0.0808,0.0832,0.0861,0.0892,0.091,0.096,0.0975,0.1004,0.1007,0.1008,0.1053,0.1042,0.1032,0.1006,0.1049,0.1053,0.106,0.0961,0.096,0.0959,0.0958,0,0,0.0703,0.0742,0.0749,0.0768,0.0804,0.082,0.0857,0.0896,0.0931,0.0967,0.1008,0.1044,0.1065,0.1071,0.1074,0.1095,0.1151,0.1089,0.109,0.11,0.1207,0.1114,0.1113,0.1159,0.116,0.1162,0.119,0,0.0715,0.0746,0.0764,0.0803,0.082,0.0855,0.0886,0.0926,0.0965,0.101,0.1039,0.1082,0.1083,0.1109,0.1135,0.1153,0.1174,0.1144,0.1162,0.1162,0.1077,0.1119,0.1167,0.1195,0.1197,0.1198,0.1199,0,0.0726,0.0745,0.078,0.0823,0.0837,0.0869,0.0932,0.0965,0.1026,0.1057,0.1107,0.1131,0.1182,0.117,0.1227,0.1213,0.1221,0.1223,0.1224,0.1123,0.1082,0.1144,0.1211,0.121,0.1209,0.1208,0.1208,0,0.0713,0.0757,0.0788,0.0803,0.0854,0.089,0.093,0.0991,0.1023,0.1099,0.1132,0.1188,0.1225,0.1255,0.1268,0.1265,0.131,0.1301,0.1217,0.121,0.126,0.1252,0.1336,0.1336,0.1336,0.1336,0.1336,0,0.0709,0.0735,0.0793,0.081,0.0861,0.09,0.0961,0.1009,0.1068,0.1107,0.1165,0.1193,0.1254,0.1279,0.1287,0.1269,0.1329,0.123,0.1216,0.1281,0.1275,0.1265,0.1256,0.1337,0.1337,0.1336,0.1336,0,0.0684,0.0722,0.0763,0.0831,0.0856,0.0901,0.0975,0.1008,0.1078,0.1128,0.1156,0.1221,0.1262,0.1285,0.1324,0.1283,0.1278,0.125,0.131,0.1298,0.1157,0.1151,0.1177,0.1174,0.1171,0.1169,0.1167,0,0.0669,0.0688,0.0773,0.081,0.0848,0.0912,0.0944,0.1011,0.1035,0.1129,0.1138,0.1207,0.1239,0.1218,0.1251,0.1247,0.1227,0.121,0.1194,0.116,0.1144,0.1142,0.1139,0.1164,0.1163,0.1162,0.1162,0,0.0644,0.0689,0.0731,0.0798,0.085,0.088,0.0933,0.094,0.101,0.1078,0.1106,0.1125,0.1155,0.1173,0.1167,0.1161,0.1218,0.1184,0.1189,0.1175,0.1144,0.113,0.1131,0.1153,0.1154,0.1155,0.1156,0,0.0639,0.067,0.0736,0.0788,0.0838,0.0839,0.0868,0.0891,0.092,0.1012,0.1019,0.1087,0.1151,0.1127,0.1124,0.1109,0.11,0.106,0.1072,0.1082,0.1034,0.098,0.0934,0,0,0,0,0,0.0636,0.0667,0.0713,0.0766,0.08,0.0821,0.0851,0.0871,0.0929,0.0927,0.0971,0.0997,0.101,0.1038,0.1005,0.1071,0.1094,0.1025,0.1053,0.1105,0.1115,0.1065,0,0,0,0,0,0,0.0636,0.0692,0.0706,0.072,0.0741,0.076,0.0772,0.0807,0.0802,0.0875,0.0887,0.0946,0.0969,0.1035,0.0997,0.1001,0.0997,0.1065,0.1062,0.11,0.1109,0.1117,0.1069,0,0,0,0,0]},{"header":{"parameterUnit":"m.s-1","parameterCategory":2,"la1":30.2991,"la2":30.254,"lo1":-89.0895,"lo2":-89.0444,"dy":0.0017,"dx":0.0017,"nx":28,"ny":28,"refTime":"2024-08-18T21:00:00:Z","depth":"4","parameterNumber":3,"parameterNumberName":"V-component_of_CURRENTS"},"data":[0,0,0,0,0,0,0,0,0,0,0,0,0,0,0,0,0,0,0,0,0,0,0,0,0,0,0,0,0,0,0,0,0,0,0,0,0,0,0,0,0,0,0,0,0,0,0,0,0,0,0,0,0,0,0,0,0,0,0.0182,0.0182,0,0.0179,0.0179,0.0179,0.0181,0.0181,0.0181,0.0181,0.0165,0.0164,0.0164,0,0,0,0,0,0,0,0,0,0,0,0,0,0.0176,0.0176,0.0182,0.0182,0.0182,0.0179,0.0179,0.0179,0.0181,0.0181,0.0181,0.0181,0.0165,0.0164,0.0164,0,0,0,0,0,0,0,0,0,0,0,0,0,0.0177,0.0176,0.0182,0.0182,0.0182,0.0179,0.0179,0.0179,0.0181,0.0181,0.0181,0.0181,0.0165,0.0164,0.0164,0.0158,0,0,0.0161,0.0161,0,0,0,0,0,0,0,0,0.0177,0.0177,0.0182,0.0182,0.0182,0.018,0.0171,0.0171,0.0181,0.0182,0.0181,0.0181,0.0168,0.0167,0.0168,0.0158,0.0157,0.0161,0.0161,0.0161,0.016,0,0,0,0,0,0,0,0.0177,0.0177,0.0182,0.0182,0.0182,0.0177,0.0178,0.0171,0.0175,0.0182,0.0182,0.0181,0.0168,0.0168,0.0167,0.0157,0.0161,0.0161,0.016,0.016,0.015,0.015,0,0,0,0,0,0,0.0177,0.0178,0.0182,0.0182,0.0179,0.0178,0.0178,0.0181,0.0175,0.0175,0.018,0.0181,0.0169,0.0168,0.0166,0.0165,0.0161,0.016,0.016,0.015,0.015,0.015,0,0,0,0,0,0,0.0177,0.0177,0.0182,0.0179,0.0179,0.0178,0.0181,0.0181,0.0182,0.0174,0.0173,0.0181,0.0169,0.0167,0.0161,0.0164,0.016,0.0159,0.0149,0.015,0.015,0.0158,0,0,0,0,0,0,0.0177,0.0178,0.018,0.0179,0.0179,0.0182,0.0181,0.0181,0.018,0.0181,0.0175,0.0173,0.0169,0.0162,0.016,0.0163,0.0159,0.0149,0.0149,0.015,0.0158,0.0159,0.016,0,0,0,0,0,0.0177,0.0181,0.0181,0.0181,0.0183,0.0182,0.0182,0.0181,0.018,0.0182,0.0176,0.0173,0.0162,0.0161,0.0159,0.0162,0.0149,0.0149,0.015,0.0157,0.0159,0.016,0,0,0,0,0,0,0.0179,0.0182,0.0181,0.0186,0.0184,0.0182,0.0183,0.0181,0.0179,0.0179,0.0172,0.017,0.0166,0.0162,0.0161,0.016,0.0157,0.0156,0.0163,0.0164,0.0165,0.017,0.0158,0,0,0,0,0,0.018,0.0187,0.0184,0.0189,0.0187,0.0185,0.0184,0.0184,0.0181,0.018,0.0176,0.0171,0.0165,0.0163,0.0158,0.0156,0.0142,0.0158,0.0158,0.0159,0.0162,0.0141,0.014,0.0151,0.0151,0.0151,0,0,0.0182,0.0185,0.0188,0.019,0.0188,0.0191,0.0185,0.0186,0.019,0.0178,0.018,0.0172,0.0165,0.0163,0.0161,0.0161,0.0148,0.016,0.016,0.0163,0.0141,0.014,0.0139,0.0151,0.0151,0.0151,0,0,0.0189,0.019,0.0197,0.0197,0.0197,0.0196,0.0196,0.0194,0.0194,0.0193,0.0186,0.0178,0.0173,0.0167,0.0164,0.0166,0.0152,0.0167,0.0177,0.0156,0.0155,0.0154,0.0131,0.0128,0.017,0.017,0.017,0,0.0191,0.02,0.0198,0.0203,0.0206,0.0199,0.0205,0.0203,0.02,0.02,0.0196,0.0184,0.0175,0.017,0.0173,0.0168,0.0153,0.0173,0.0157,0.0155,0.0154,0.0131,0.0127,0.017,0.017,0.017,0.017,0,0.02,0.0209,0.0212,0.022,0.0221,0.0226,0.0222,0.0223,0.022,0.0217,0.0211,0.0196,0.0191,0.0186,0.018,0.017,0.0161,0.0157,0.0153,0.0153,0.0129,0.0125,0.0171,0.0171,0.0171,0.017,0,0,0.0206,0.0218,0.022,0.0229,0.0232,0.0235,0.0239,0.024,0.0244,0.0234,0.0235,0.022,0.021,0.0206,0.0194,0.0177,0.0151,0.0166,0.0165,0.0142,0.0102,0.0101,0.0096,0.0143,0.0142,0.0142,0.0087,0,0.0216,0.0234,0.0236,0.0253,0.0261,0.0259,0.0265,0.0264,0.026,0.0259,0.0239,0.0236,0.0219,0.0218,0.0195,0.0165,0.0141,0.0166,0.0107,0.0105,0.0103,0.0092,0.014,0.0084,0.0083,0.0082,0.0082,0,0.0226,0.0238,0.0257,0.0275,0.0278,0.0288,0.0297,0.0302,0.0295,0.0292,0.0279,0.0264,0.024,0.0225,0.0166,0.0182,0.0144,0.0115,0.0112,0.0107,0.0097,0.0085,0.0074,0.0075,0.0075,0.0076,0.0076,0,0.0235,0.0253,0.0272,0.0278,0.0294,0.0304,0.0313,0.0313,0.0323,0.0315,0.0318,0.0283,0.0272,0.0218,0.0157,0.0162,0.0084,0.0084,0.0043,0.0042,0.0055,0.0057,0.0035,0.0035,0.0035,0.0035,0.0036,0,0.0247,0.0262,0.028,0.0291,0.0314,0.032,0.0344,0.0345,0.0353,0.0367,0.0339,0.0335,0.027,0.0219,0.0159,0.0086,0.0082,0.0042,0.0028,0.006,0.0063,0.0052,0.0054,0.0033,0.0034,0.0034,0.0035,0,0.0255,0.0267,0.029,0.0311,0.0322,0.0338,0.037,0.0386,0.0391,0.0408,0.0409,0.0374,0.0314,0.0236,0.0146,0.0096,0.0022,-0.0006,0.0028,0.0018,-0.0006,-0.0002,-0.0049,-0.0049,-0.0049,-0.005,-0.005,0,0.0261,0.0276,0.0304,0.032,0.0333,0.0362,0.0384,0.0403,0.0421,0.0429,0.0436,0.0391,0.0357,0.0226,0.0142,0.0022,0.0006,-0.0038,-0.0016,-0.0006,-0.0015,-0.001,-0.0006,-0.0051,-0.0051,-0.0051,-0.0051,0,0.0272,0.0283,0.03,0.0332,0.0359,0.0392,0.0425,0.0442,0.0465,0.0472,0.046,0.0402,0.0333,0.0234,0.0136,0.005,-0.001,-0.0042,-0.0042,-0.0021,-0.0009,-0.0017,-0.0012,-0.0052,-0.0052,-0.0052,-0.0052,0,0.0277,0.0288,0.031,0.034,0.0376,0.0412,0.0429,0.0453,0.0474,0.0485,0.0477,0.0409,0.037,0.0247,0.0155,0.0072,0.006,0.0032,0.0028,0.0029,0.0069,0.0097,0.0072,0,0,0,0,0,0.0279,0.0292,0.0317,0.0349,0.0387,0.0412,0.0452,0.0469,0.0491,0.0489,0.0488,0.0426,0.031,0.0255,0.0175,0.0143,0.0037,0.0045,0.0001,-0.006,-0.0059,-0.0024,0,0,0,0,0,0,0.0279,0.03,0.0312,0.0355,0.0381,0.0426,0.0455,0.0471,0.047,0.048,0.0418,0.0402,0.0285,0.0358,0.0173,0.0148,0.0108,-0.0006,-0.0008,-0.0061,-0.006,-0.0058,-0.0023,0,0,0,0,0]}]]